Weather History for New York JFK, NY

Change the Weather History Date:

Monday, April 28, 2014

  Actual Average Record
Temperature  
Mean Temperature 56 °F 55 °F  
Max Temperature 66 °F 63 °F 85 °F (2009)
Min Temperature 45 °F 47 °F 37 °F (1966)
Degree Days  
Heating Degree Days 9 10  
Month to date heating degree days 409 397  
Since 1 July heating degree days 4966 4633  
Cooling Degree Days 0 0  
Month to date cooling degree days 0 0  
Year to date cooling degree days 0 0  
Growing Degree Days 6 (Base 50)    
Moisture  
Dew Point 35 °F    
Average Humidity 48    
Maximum Humidity 74    
Minimum Humidity 22    
Precipitation  
Precipitation 0.00 in 0.13 in 2.71 in (1980)
Month to date precipitation 2.25 3.64  
Year to date precipitation 14.11 13.17  
Snow  
Snow 0.00 in 0.00 in - ()
Month to date snowfall 0.1 0.8  
Since 1 July snowfall 45.6 23.8  
Snow Depth 0.00 in    
Sea Level Pressure  
Sea Level Pressure 30.09 in    
Wind  
Wind Speed 10 mph (NNW)    
Max Wind Speed 22 mph    
Max Gust Speed 25 mph    
Visibility 10 miles    
Events      
T = Trace of Precipitation, MM = Missing Value Source: NWS Daily Summary

Daily Weather History Graph

Daily Weather History Graph

Search for Another Location

Airport:

Trip Planner

Search our weather history database for the weather conditions in past years. The results will help you decide how hot, cold, wet, or windy it might be!

Date:

Astronomy

Apr. 28, 2014 Rise Set
Actual Time 5:57 AM EDT 7:47 PM EDT
Civil Twilight 5:28 AM EDT 8:17 PM EDT
Nautical Twilight 4:52 AM EDT 8:53 PM EDT
Astronomical Twilight 4:14 AM EDT 9:31 PM EDT
Moon 5:34 AM EDT (4/28) 7:23 PM EDT (4/28)
Length of Visible Light 14h 49m
Length of Day
13h 50m
Waning Crescent, 0% of the Moon is Illuminated
Apr 28
Waning Crescent
Apr 29
New
May 6
First Quarter
May 14
Full
May 21
Last Quarter

Hourly Weather History & Observations

Time (EDT) Temp. Windchill Dew Point Humidity Pressure Visibility Wind Dir Wind Speed Gust Speed Precip Events Conditions
12:51 AM 50.0 °F - 36.0 °F 59% 30.12 in 10.0 mi North 8.1 mph - N/A   Partly Cloudy
1:51 AM 48.9 °F - 35.1 °F 59% 30.10 in 10.0 mi North 10.4 mph - N/A   Clear
2:51 AM 46.9 °F - 35.1 °F 63% 30.10 in 10.0 mi North 9.2 mph - N/A   Clear
3:51 AM 46.9 °F - 35.1 °F 63% 30.09 in 10.0 mi North 5.8 mph - N/A   Clear
4:51 AM 46.0 °F 41.9 °F 35.1 °F 66% 30.09 in 10.0 mi North 8.1 mph - N/A   Partly Cloudy
5:51 AM 45.0 °F 40.1 °F 34.0 °F 65% 30.11 in 10.0 mi NNW 9.2 mph - N/A   Scattered Clouds
6:51 AM 48.0 °F - 35.1 °F 61% 30.12 in 10.0 mi NNW 10.4 mph - N/A   Scattered Clouds
7:51 AM 50.0 °F - 35.1 °F 57% 30.12 in 10.0 mi North 13.8 mph - N/A   Scattered Clouds
8:51 AM 53.1 °F - 34.0 °F 48% 30.12 in 10.0 mi NNW 12.7 mph - N/A   Partly Cloudy
9:51 AM 55.0 °F - 32.0 °F 42% 30.12 in 10.0 mi North 11.5 mph - N/A   Scattered Clouds
10:51 AM 57.0 °F - 33.1 °F 40% 30.11 in 10.0 mi NW 10.4 mph - N/A   Scattered Clouds
11:51 AM 59.0 °F - 33.1 °F 38% 30.09 in 10.0 mi NW 8.1 mph - N/A   Mostly Cloudy
12:51 PM 60.1 °F - 30.9 °F 33% 30.06 in 10.0 mi NNW 8.1 mph 16.1 mph N/A   Mostly Cloudy
1:51 PM 62.1 °F - 28.0 °F 28% 30.05 in 10.0 mi North 10.4 mph - N/A   Mostly Cloudy
2:51 PM 63.0 °F - 28.0 °F 27% 30.04 in 10.0 mi NNW 9.2 mph - N/A   Mostly Cloudy
3:51 PM 64.9 °F - 25.0 °F 22% 30.02 in 10.0 mi NNW 10.4 mph - N/A   Mostly Cloudy
4:34 PM 62.6 °F - 33.8 °F 34% 30.03 in 10.0 mi SSW 11.5 mph - N/A   Mostly Cloudy
4:51 PM 60.1 °F - 33.1 °F 36% 30.04 in 10.0 mi SSW 13.8 mph - N/A   Mostly Cloudy
5:51 PM 55.9 °F - 37.9 °F 51% 30.05 in 10.0 mi South 15.0 mph - N/A   Mostly Cloudy
6:51 PM 53.1 °F - 37.9 °F 57% 30.05 in 10.0 mi South 8.1 mph - N/A   Mostly Cloudy
7:51 PM 51.1 °F - 39.0 °F 63% 30.08 in 10.0 mi South 10.4 mph - N/A   Mostly Cloudy
8:51 PM 51.1 °F - 39.0 °F 63% 30.09 in 10.0 mi South 10.4 mph - N/A   Overcast
9:51 PM 51.1 °F - 41.0 °F 68% 30.11 in 10.0 mi SSW 5.8 mph - N/A   Overcast
10:51 PM 51.1 °F - 42.1 °F 71% 30.13 in 10.0 mi ESE 9.2 mph - N/A   Overcast
11:51 PM 50.0 °F - 42.1 °F 74% 30.15 in 10.0 mi ESE 12.7 mph - N/A   Overcast